TVF88MU LFPO-LGIR

Flight info

Callsign TVF88MU
Flight time N/A
Altitude 23000
Route BUBLI DCT LUVAL/N0441F350 DCT SHARA DCT DEVDI DCT RIPUS DCT RESIA DCT BORMI DCT ROTAR DCT MINTU DCT SPL DCT PINDO/N0442F370 DCT KEA UL607 GIVIS T514 XAVIS
Aircraft B738/M-SDFGHIJ1RWXY/LB1

Departure

Time 2026-05-04 09:40
Airport Paris-Orly Airport (LFPO)

Arrival

Time N/A
Airport Heraklion International Nikos Kazantzakis Airport (LGIR)
Time Latitude Longitude Altitude Speed Heading
2026-05-04 09:03 48.72718 2.36749 290 ft 0 kts 22°
2026-05-04 09:31 48.72713 2.36745 292 ft 4 kts 22°
2026-05-04 09:31 48.72688 2.36729 292 ft 4 kts 22°
2026-05-04 09:31 48.72667 2.36716 296 ft 2 kts 22°
2026-05-04 09:32 48.72643 2.36708 295 ft 4 kts 352°
2026-05-04 09:32 48.72618 2.36717 292 ft 4 kts 326°
2026-05-04 09:34 48.72621 2.36782 296 ft 0 kts 250°
2026-05-04 09:34 48.72617 2.36765 293 ft 5 kts 250°
2026-05-04 09:35 48.72595 2.36682 293 ft 10 kts 247°
2026-05-04 09:35 48.72549 2.36612 291 ft 10 kts 189°
2026-05-04 09:35 48.72491 2.36576 293 ft 10 kts 236°
2026-05-04 09:35 48.72469 2.36482 294 ft 10 kts 254°
2026-05-04 09:37 48.72260 2.35605 293 ft 13 kts 194°
2026-05-04 09:37 48.72172 2.35624 290 ft 13 kts 166°
2026-05-04 09:38 48.72089 2.35662 292 ft 12 kts 159°
2026-05-04 09:38 48.72030 2.35751 290 ft 12 kts 123°
2026-05-04 09:38 48.71988 2.35858 295 ft 12 kts 120°
2026-05-04 09:38 48.71963 2.35968 291 ft 11 kts 77°
2026-05-04 09:39 48.71996 2.36152 292 ft 41 kts 74°
2026-05-04 09:39 48.72139 2.36933 291 ft 111 kts 75°
2026-05-04 09:39 48.72403 2.38358 307 ft 167 kts 73°
2026-05-04 09:39 48.72741 2.40162 759 ft 184 kts 74°
2026-05-04 09:40 48.73082 2.42041 1615 ft 182 kts 75°
2026-05-04 09:40 48.73423 2.43867 2494 ft 179 kts 76°
2026-05-04 09:40 48.73766 2.45699 3161 ft 183 kts 76°
2026-05-04 09:40 48.74057 2.47592 3676 ft 194 kts 85°
2026-05-04 09:41 48.74148 2.49745 3875 ft 214 kts 88°
2026-05-04 09:42 48.75362 2.68370 7595 ft 277 kts 84°
2026-05-04 09:43 48.75592 2.71285 8342 ft 280 kts 84°
2026-05-04 09:43 48.75820 2.74235 9059 ft 284 kts 84°
2026-05-04 09:43 48.76050 2.77228 9776 ft 287 kts 84°
2026-05-04 09:43 48.76281 2.80259 10344 ft 295 kts 84°
2026-05-04 09:44 48.76525 2.83468 10495 ft 317 kts 84°
2026-05-04 09:44 48.76721 2.86897 10699 ft 335 kts 88°
2026-05-04 09:44 48.76772 2.90477 11176 ft 343 kts 90°
2026-05-04 09:46 48.76873 3.16116 15391 ft 364 kts 91°
2026-05-04 09:46 48.76900 3.19966 15946 ft 367 kts 91°
2026-05-04 09:46 48.76918 3.22592 16314 ft 369 kts 91°
2026-05-04 09:47 48.76944 3.26502 16860 ft 373 kts 91°
2026-05-04 09:47 48.76969 3.30445 17401 ft 376 kts 91°
2026-05-04 09:49 48.77115 3.58969 20696 ft 398 kts 93°
2026-05-04 09:49 48.77131 3.63176 21174 ft 400 kts 93°
2026-05-04 09:49 48.77145 3.67403 21622 ft 402 kts 93°
2026-05-04 09:51 48.77198 3.93333 24056 ft 417 kts 94°
2026-05-04 09:51 48.77202 3.97741 24395 ft 420 kts 94°
2026-05-04 09:51 48.77205 4.02175 24718 ft 422 kts 94°
2026-05-04 09:51 48.77205 4.06639 25042 ft 424 kts 94°
2026-05-04 09:52 48.77105 4.11109 25342 ft 423 kts 102°
2026-05-04 09:52 48.76428 4.15409 25647 ft 418 kts 114°
2026-05-04 09:52 48.75221 4.19381 25986 ft 414 kts 125°
2026-05-04 09:52 48.73602 4.22968 26306 ft 413 kts 130°
2026-05-04 09:53 48.71914 4.26495 26602 ft 415 kts 130°
2026-05-04 09:53 48.70223 4.30008 26914 ft 417 kts 130°
2026-05-04 09:53 48.68517 4.33563 27216 ft 419 kts 130°
2026-05-04 09:53 48.66807 4.37148 27477 ft 421 kts 130°
2026-05-04 09:54 48.65092 4.40758 27753 ft 424 kts 130°
2026-05-04 09:54 48.63373 4.44388 28043 ft 426 kts 130°
2026-05-04 09:54 48.61647 4.48038 28319 ft 427 kts 130°
2026-05-04 09:54 48.59916 4.51696 28593 ft 429 kts 130°
2026-05-04 09:55 48.58173 4.55375 28857 ft 431 kts 130°
2026-05-04 09:55 48.56424 4.59062 29107 ft 433 kts 130°
2026-05-04 09:55 48.54664 4.62767 29371 ft 435 kts 130°
2026-05-04 09:55 48.52898 4.66480 29626 ft 436 kts 130°
2026-05-04 09:56 48.51125 4.70201 29875 ft 438 kts 130°
2026-05-04 09:56 48.49365 4.73891 30109 ft 440 kts 130°
2026-05-04 09:56 48.47576 4.77634 30282 ft 441 kts 131°
2026-05-04 09:56 48.45777 4.81396 30492 ft 443 kts 131°
2026-05-04 09:57 48.43975 4.85157 30777 ft 443 kts 131°
2026-05-04 09:57 48.42177 4.88908 31108 ft 441 kts 131°
2026-05-04 09:57 48.40382 4.92646 31421 ft 440 kts 131°
2026-05-04 09:57 48.38592 4.96369 31681 ft 439 kts 131°
2026-05-04 09:58 48.36798 5.00093 31930 ft 439 kts 131°
2026-05-04 09:58 48.35007 5.03808 32202 ft 439 kts 131°
2026-05-04 09:58 48.33217 5.07516 32496 ft 438 kts 131°
2026-05-04 10:00 48.24920 5.37523 34071 ft 454 kts 112°
2026-05-04 10:00 48.24022 5.42062 34232 ft 454 kts 112°
2026-05-04 10:02 48.17568 5.73757 35394 ft 455 kts 112°
2026-05-04 10:04 48.10984 6.05525 36350 ft 458 kts 112°
2026-05-04 10:04 48.10034 6.10070 36531 ft 458 kts 112°
2026-05-04 10:04 48.09083 6.14609 36734 ft 457 kts 112°
2026-05-04 10:04 48.08131 6.19141 36885 ft 457 kts 112°
2026-05-04 10:05 48.07176 6.23678 37002 ft 458 kts 112°
2026-05-04 10:05 48.05250 6.32788 37032 ft 461 kts 112°
2026-05-04 10:06 48.03314 6.41921 37022 ft 460 kts 112°
2026-05-04 10:06 48.01374 6.51027 37031 ft 460 kts 112°
2026-05-04 10:08 47.93861 6.82530 37006 ft 459 kts 117°
2026-05-04 10:08 47.91423 6.91288 37029 ft 457 kts 117°
2026-05-04 10:09 47.89021 7.00038 37027 ft 456 kts 117°
2026-05-04 10:09 47.86629 7.08781 37032 ft 456 kts 117°
2026-05-04 10:10 47.84235 7.17511 37034 ft 455 kts 117°
2026-05-04 10:10 47.81841 7.26201 37036 ft 454 kts 117°
2026-05-04 10:11 47.79437 7.34892 37028 ft 454 kts 117°
2026-05-04 10:11 47.77026 7.43582 37023 ft 455 kts 117°
2026-05-04 10:12 47.74603 7.52269 37026 ft 455 kts 118°
2026-05-04 10:12 47.71409 7.60153 37023 ft 446 kts 131°
2026-05-04 10:13 47.67672 7.67515 37018 ft 447 kts 132°
2026-05-04 10:13 47.63928 7.74903 37027 ft 449 kts 131°
2026-05-04 10:14 47.60201 7.82336 37026 ft 450 kts 131°
2026-05-04 10:16 47.45270 8.12082 37032 ft 450 kts 131°
2026-05-04 10:16 47.41531 8.19479 37029 ft 449 kts 131°
2026-05-04 10:17 47.37787 8.26866 37022 ft 449 kts 131°
2026-05-04 10:19 47.23064 8.55854 37026 ft 447 kts 130°
2026-05-04 10:19 47.19417 8.63260 37022 ft 447 kts 130°
2026-05-04 10:20 47.15766 8.70657 37012 ft 447 kts 130°
2026-05-04 10:20 47.12108 8.78029 37034 ft 447 kts 130°
2026-05-04 10:21 47.08439 8.85392 37039 ft 447 kts 130°
2026-05-04 10:21 47.04801 8.92669 37050 ft 446 kts 130°
2026-05-04 10:22 46.99295 9.03655 37079 ft 445 kts 130°
2026-05-04 10:23 46.95615 9.10966 37049 ft 446 kts 130°
2026-05-04 10:25 46.80747 9.40318 37058 ft 451 kts 130°
2026-05-04 10:25 46.77002 9.47664 37089 ft 451 kts 130°
2026-05-04 10:26 46.73248 9.55008 37096 ft 452 kts 130°
2026-05-04 10:26 46.69495 9.62333 37135 ft 451 kts 130°
2026-05-04 10:27 46.65744 9.69633 37121 ft 449 kts 130°
2026-05-04 10:27 46.62031 9.76841 37140 ft 447 kts 130°
2026-05-04 10:28 46.58298 9.84069 37156 ft 447 kts 130°
2026-05-04 10:28 46.54566 9.91275 37158 ft 446 kts 130°
2026-05-04 10:29 46.50834 9.98467 37149 ft 446 kts 130°
2026-05-04 10:29 46.47158 10.05707 37155 ft 448 kts 124°
2026-05-04 10:30 46.44068 10.13574 37155 ft 450 kts 121°
2026-05-04 10:30 46.41076 10.21544 37144 ft 451 kts 121°
2026-05-04 10:31 46.38041 10.29485 37149 ft 451 kts 122°
2026-05-04 10:32 46.27221 10.57189 37136 ft 452 kts 122°
2026-05-04 10:33 46.24640 10.63752 37149 ft 452 kts 122°
2026-05-04 10:33 46.21525 10.71654 37175 ft 453 kts 122°
2026-05-04 10:34 46.18406 10.79545 37183 ft 452 kts 122°
2026-05-04 10:34 46.15281 10.87426 37191 ft 452 kts 122°
2026-05-04 10:35 46.12148 10.95306 37171 ft 452 kts 122°
2026-05-04 10:35 46.09020 11.03152 37176 ft 451 kts 122°
2026-05-04 10:36 46.05892 11.10980 37163 ft 451 kts 122°
2026-05-04 10:36 46.02754 11.18794 37147 ft 451 kts 122°
2026-05-04 10:37 45.99575 11.26556 37119 ft 450 kts 123°
2026-05-04 10:37 45.96381 11.34297 37119 ft 450 kts 123°
2026-05-04 10:39 45.85199 11.61317 37115 ft 451 kts 123°
2026-05-04 10:40 45.81986 11.69040 37089 ft 451 kts 123°
2026-05-04 10:40 45.78775 11.76735 37105 ft 451 kts 123°
2026-05-04 10:41 45.76098 11.83134 37116 ft 451 kts 123°